TimeMDT,TemperatureF,Dew PointF,Humidity,Sea Level PressureIn,VisibilityMPH,Wind Direction,Wind SpeedMPH,Gust SpeedMPH,PrecipitationIn,Events,Conditions,WindDirDegrees,DateUTC
12:53 AM,53.1,30.0,41,29.77,10.0,West,8.1,-,N/A,,Clear,260,2013-04-28 06:53:00
1:53 AM,51.1,30.9,46,29.76,10.0,WSW,6.9,-,N/A,,Clear,240,2013-04-28 07:53:00
2:53 AM,52.0,30.9,45,29.73,10.0,SW,10.4,-,N/A,,Clear,230,2013-04-28 08:53:00
3:53 AM,52.0,30.0,43,29.75,10.0,Calm,Calm,-,N/A,,Clear,0,2013-04-28 09:53:00
4:53 AM,52.0,30.0,43,29.78,10.0,NNW,3.5,-,N/A,,Partly Cloudy,340,2013-04-28 10:53:00
5:53 AM,46.9,33.1,59,29.82,10.0,NNW,4.6,-,N/A,,Clear,330,2013-04-28 11:53:00
6:53 AM,48.2,33.8,58,29.92,10.0,NNW,4.6,-,N/A,,Scattered Clouds,340,2013-04-28 12:53:00
7:53 AM,53.1,34.0,48,29.88,10.0,NE,4.6,-,N/A,,Clear,40,2013-04-28 13:53:00
8:53 AM,55.9,34.0,44,29.90,10.0,NNE,18.4,-,N/A,,Clear,20,2013-04-28 14:53:00
9:53 AM,57.0,35.1,44,29.90,10.0,NE,10.4,-,N/A,,Clear,40,2013-04-28 15:53:00
10:53 AM,57.0,35.1,44,29.92,10.0,North,18.4,21.9,N/A,,Mostly Cloudy,350,2013-04-28 16:53:00
11:53 AM,59.0,36.0,42,29.90,10.0,North,16.1,24.2,N/A,,Mostly Cloudy,350,2013-04-28 17:53:00
12:53 PM,61.0,36.0,39,29.89,10.0,North,18.4,25.3,N/A,,Mostly Cloudy,350,2013-04-28 18:53:00
1:53 PM,57.0,35.1,44,29.91,10.0,NNW,16.1,-,N/A,,Overcast,340,2013-04-28 19:53:00
2:53 PM,55.4,35.6,47,29.98,10.0,NNW,13.8,-,N/A,,Overcast,340,2013-04-28 20:53:00
3:53 PM,54.0,37.0,53,29.91,10.0,NNW,17.3,-,N/A,,Overcast,330,2013-04-28 21:53:00
4:53 PM,50.0,39.0,66,29.93,10.0,North,17.3,-,N/A,,Overcast,350,2013-04-28 22:53:00
5:53 PM,50.0,37.4,62,29.98,10.0,North,12.7,-,N/A,,Overcast,360,2013-04-28 23:53:00
6:53 PM,46.0,39.9,79,29.93,10.0,ENE,6.9,-,0.00,Rain,Light Rain,60,2013-04-29 00:53:00
7:53 PM,44.1,41.0,89,29.90,10.0,SE,5.8,-,0.01,,Scattered Clouds,130,2013-04-29 01:53:00
8:53 PM,42.1,39.0,89,29.90,10.0,South,10.4,-,N/A,,Clear,170,2013-04-29 02:53:00
9:53 PM,41.0,37.9,89,29.88,10.0,South,11.5,-,N/A,,Clear,170,2013-04-29 03:53:00
10:53 PM,41.0,37.0,86,29.88,10.0,Calm,Calm,-,N/A,,Clear,0,2013-04-29 04:53:00
11:53 PM,39.9,37.0,89,29.85,10.0,South,8.1,-,N/A,,Clear,170,2013-04-29 05:53:00